TimeCDT,TemperatureF,Dew PointF,Humidity,Sea Level PressureIn,VisibilityMPH,Wind Direction,Wind SpeedMPH,Gust SpeedMPH,PrecipitationIn,Events,Conditions,WindDirDegrees,DateUTC
12:51 AM,77.0,60.1,56,29.95,10.0,SE,4.6,-,N/A,,Clear,140,2013-07-04 05:51:00
1:51 AM,77.0,61.0,58,29.95,10.0,SE,3.5,-,N/A,,Clear,140,2013-07-04 06:51:00
2:51 AM,73.9,61.0,64,29.96,10.0,SE,4.6,-,N/A,,Clear,140,2013-07-04 07:51:00
3:51 AM,73.0,63.0,71,29.95,10.0,Variable,3.5,-,N/A,,Clear,0,2013-07-04 08:51:00
4:51 AM,72.0,63.0,73,29.95,10.0,Calm,Calm,-,N/A,,Scattered Clouds,0,2013-07-04 09:51:00
5:51 AM,72.0,64.0,76,29.95,10.0,Calm,Calm,-,N/A,,Clear,0,2013-07-04 10:51:00
6:51 AM,70.0,63.0,78,29.96,10.0,Calm,Calm,-,N/A,,Clear,0,2013-07-04 11:51:00
7:51 AM,73.9,64.9,73,29.97,10.0,Calm,Calm,-,N/A,,Clear,0,2013-07-04 12:51:00
8:51 AM,79.0,68.0,69,29.98,10.0,Variable,3.5,-,N/A,,Clear,0,2013-07-04 13:51:00
9:51 AM,81.0,64.0,56,29.98,10.0,Variable,5.8,-,N/A,,Clear,0,2013-07-04 14:51:00
10:51 AM,82.9,62.1,49,29.98,10.0,SW,3.5,-,N/A,,Clear,230,2013-07-04 15:51:00
11:51 AM,86.0,60.1,41,29.97,10.0,Variable,3.5,-,N/A,,Clear,0,2013-07-04 16:51:00
12:51 PM,89.1,57.9,35,29.96,10.0,Calm,Calm,-,N/A,,Clear,0,2013-07-04 17:51:00
1:51 PM,91.0,57.0,32,29.94,10.0,Variable,4.6,-,N/A,,Clear,0,2013-07-04 18:51:00
2:51 PM,93.9,53.1,25,29.91,10.0,SE,8.1,-,N/A,,Clear,140,2013-07-04 19:51:00
3:51 PM,91.9,53.1,27,29.90,10.0,Variable,4.6,-,N/A,,Clear,0,2013-07-04 20:51:00
4:51 PM,93.9,48.0,21,29.88,10.0,Calm,Calm,-,N/A,,Clear,0,2013-07-04 21:51:00
5:51 PM,95.0,48.0,20,29.87,10.0,Variable,4.6,-,N/A,,Clear,0,2013-07-04 22:51:00
6:51 PM,93.0,50.0,23,29.86,10.0,Variable,4.6,-,N/A,,Clear,0,2013-07-04 23:51:00
7:51 PM,91.0,51.1,25,29.86,10.0,Calm,Calm,-,N/A,,Clear,0,2013-07-05 00:51:00
8:51 PM,87.1,53.1,31,29.88,10.0,East,3.5,-,N/A,,Clear,100,2013-07-05 01:51:00
9:51 PM,84.9,54.0,34,29.88,10.0,NE,3.5,-,N/A,,Clear,50,2013-07-05 02:51:00
10:51 PM,82.9,57.0,41,29.92,10.0,ESE,6.9,-,N/A,,Partly Cloudy,120,2013-07-05 03:51:00
11:51 PM,82.0,61.0,49,29.94,10.0,SSE,8.1,-,N/A,,Clear,160,2013-07-05 04:51:00